Location: Asheville, NC
(35.6000°N, 82.5500°W)
Time: 07:15:54
(UTC-04:00)

Vanguard 1 Rocket - Pass Details

Date: 26 January 2018
Orbit: 652 x 4225 km, 34.3° (Epoch: 20 May)

Event Time Altitude Azimuth Distance (km) Brightness Sun altitude
Exits shadow 06:17:33 - 247° (WSW) 7,529 11.6 -15.7°
Reaches altitude 10° 06:22:13 10° 247° (WSW) 6,381 11.2 -14.8°
Maximum altitude 06:40:08 73° 167° (SSE) 2,110 9.3 -11.2°
Drops below altitude 10° 06:48:56 10° 84° (E) 3,372 11.5 -9.5°
Sets 06:51:08 0° 82° (E) 4,062 12.1 -9.1°
